Temp
-6 -7 -7 -7 -7 -7 -8 -8 -8 -8 -9 -9 -8 -8 -8 -7 -7 -7 -7 -7 -7 -7 -6 -6 -7 -6 -6 -7 -7 -6 -6 -6 -6 -6 -6 -6 -6 -6 -6 -7 -7 -7 -7
-7 -7 -8 -8 -8 -8 -8 -9 -9 -9 -9 -9 -8 -8 -8 -7 -7 -7 -7 -7 -7 -7 -7 -7 -7 -7 -7 -7 -7 -7 -6 -6 -7 -7 -7 -7 -7 -7 -7 -7 -7 -8 -8
-7 -8 -9 -8 -9 -8 -9 -9 -9 -9 -9 -9 -8 -8 -7 -7 -7 -7 -7 -7 -7 -7 -7 -7 -7 -7 -7 -7 -7 -7 -7 -7 -7 -7 -7 -7 -7 -7 -7 -7 -7 -8 -8
-8 -9 -9 -9 -9 -9 -10 -9 -9 -9 -9 -9 -9 -8 -8 -7 -7 -7 -8 -8 -8 -7 -7 -7 -7 -7 -7 -8 -8 -7 -7 -7 -7 -7 -7 -7 -7 -7 -7 -7 -8 -8 -8
-9 -9 -9 -9 -10 -10 -10 -10 -9 -9 -9 -9 -9 -8 -8 -8 -8 -8 -8 -8 -8 -8 -8 -8 -8 -8 -8 -8 -8 -8 -8 -7 -7 -7 -7 -7 -8 -8 -8 -8 -8 -8 -8
-9 -10 -10 -10 -10 -10 -10 -10 -9 -9 -9 -9 -9 -8 -8 -8 -8 -8 -8 -8 -8 -8 -8 -8 -8 -8 -8 -8 -8 -8 -8 -7 -7 -7 -7 -7 -8 -7 -7 -7 -7 -8 -8
-9 -10 -10 -10 -10 -10 -10 -10 -9 -9 -9 -9 -9 -8 -8 -8 -8 -8 -8 -8 -8 -8 -8 -8 -8 -8 -8 -8 -8 -8 -8 -8 -7 -7 -7 -7 -7 -7 -7 -7 -7 -7 -7
-9 -10 -10 -10 -10 -10 -10 -9 -9 -9 -9 -9 -9 -9 -8 -8 -8 -8 -8 -8 -8 -8 -8 -8 -8 -8 -8 -8 -8 -8 -8 -8 -8 -8 -8 -8 -8 -8 -8 -8 -8 -8 -8
-10 -11 -10 -10 -10 -10 -10 -9 -9 -9 -9 -9 -9 -9 -9 -8 -8 -8 -8 -8 -8 -8 -8 -8 -8 -8 -8 -8 -8 -8 -8 -8 -8 -8 -8 -8 -8 -8 -8 -8 -8 -8 -8
-10 -11 -11 -11 -10 -10 -10 -9 -9 -9 -9 -9 -9 -9 -9 -9 -9 -8 -8 -8 -8 -8 -8 -9 -8 -8 -8 -8 -8 -8 -8 -8 -8 -8 -8 -8 -8 -8 -9 -9 -8 -8 -8
-9 -11 -11 -11 -11 -10 -10 -10 -9 -9 -9 -9 -9 -9 -9 -9 -9 -9 -9 -9 -9 -9 -9 -9 -9 -9 -9 -8 -8 -8 -8 -8 -9 -9 -8 -8 -8 -8 -9 -8 -8 -8 -8
-9 -10 -11 -11 -11 -11 -10 -10 -10 -9 -9 -9 -9 -9 -9 -9 -9 -9 -9 -9 -9 -9 -9 -9 -9 -9 -9 -9 -8 -8 -8 -8 -8 -8 -8 -8 -8 -9 -9 -9 -9 -9 -9
-10 -10 -10 -11 -11 -11 -10 -10 -10 -9 -9 -9 -9 -9 -9 -9 -9 -9 -9 -9 -9 -9 -9 -9 -9 -9 -9 -8 -8 -8 -8 -8 -8 -8 -9 -9 -9 -9 -9 -9 -9 -9 -9
-11 -10 -10 -11 -11 -11 -10 -10 -10 -10 -10 -10 -10 -10 -10 -10 -10 -9 -9 -10 -10 -10 -9 -9 -9 -9 -9 -8 -8 -8 -8 -9 -9 -9 -9 -9 -9 -9 -9 -9 -9 -9 -9
-10 -11 -11 -11 -11 -11 -10 -10 -10 -10 -10 -10 -10 -10 -10 -10 -10 -10 -10 -10 -10 -10 -10 -9 -9 -9 -9 -9 -8 -9 -9 -9 -10 -9 -9 -10 -10 -10 -10 -9 -9 -9 -9
-10 -12 -11 -11 -11 -11 -10 -10 -10 -10 -10 -10 -10 -10 -11 -11 -10 -10 -10 -10 -10 -10 -10 -9 -9 -9 -10 -9 -9 -10 -10 -10 -10 -10 -10 -10 -10 -10 -10 -10 -10 -10 -10
-11 -12 -12 -11 -11 -11 -11 -10 -10 -10 -10 -10 -10 -11 -11 -11 -11 -11 -10 -10 -10 -10 -10 -10 -10 -10 -10 -10 -10 -10 -10 -10 -10 -10 -10 -10 -10 -10 -10 -10 -10 -10 -10
-11 -12 -12 -11 -11 -11 -11 -11 -10 -10 -10 -10 -11 -11 -11 -11 -11 -11 -10 -10 -10 -10 -10 -10 -11 -11 -11 -11 -11 -11 -10 -10 -10 -10 -10 -10 -10 -10 -10 -10 -10 -10 -10
-11 -12 -11 -11 -11 -11 -11 -11 -11 -10 -11 -11 -11 -10 -11 -11 -10 -10 -10 -10 -10 -10 -10 -11 -11 -11 -11 -11 -11 -11 -11 -11 -11 -11 -11 -11 -11 -11 -10 -10 -10 -10 -10
-11 -11 -11 -11 -11 -11 -11 -11 -11 -11 -11 -10 -10 -10 -10 -10 -10 -10 -10 -10 -10 -10 -11 -11 -11 -11 -11 -11 -11 -11 -11 -11 -11 -11 -11 -11 -11 -11 -11 -11 -11 -11 -11
-11 -12 -12 -11 -11 -11 -11 -11 -11 -11 -11 -10 -10 -10 -10 -10 -10 -10 -10 -10 -10 -11 -11 -11 -11 -11 -11 -11 -11 -11 -11 -11 -11 -11 -11 -11 -11 -11 -12 -12 -12 -12 -12
-11 -11 -11 -11 -11 -11 -11 -11 -11 -10 -10 -10 -10 -10 -10 -11 -11 -11 -11 -10 -11 -11 -11 -11 -11 -11 -12 -11 -11 -11 -11 -11 -11 -12 -12 -12 -12 -12 -12 -12 -12 -13 -12
-11 -11 -11 -11 -11 -11 -11 -11 -10 -10 -10 -10 -11 -11 -11 -11 -10 -10 -11 -11 -12 -12 -12 -12 -12 -12 -12 -12 -11 -11 -11 -11 -11 -12 -12 -12 -12 -12 -12 -12 -13 -13 -13
-11 -11 -11 -11 -11 -11 -11 -11 -10 -10 -10 -11 -10 -11 -11 -11 -11 -11 -12 -12 -12 -12 -12 -12 -12 -12 -12 -12 -12 -12 -12 -12 -11 -11 -11 -12 -12 -12 -13 -13 -13 -13 -13
-11 -11 -11 -11 -11 -11 -11 -11 -11 -10 -10 -10 -10 -11 -11 -11 -12 -13 -13 -13 -13 -13 -12 -13 -13 -13 -13 -13 -12 -12 -12 -12 -12 -12 -11 -12 -12 -13 -13 -13 -14 -14 -14
-11 -11 -11 -11 -11 -11 -11 -11 -10 -10 -11 -11 -11 -11 -12 -12 -13 -13 -13 -13 -13 -13 -13 -13 -13 -13 -13 -13 -13 -13 -13 -13 -13 -13 -13 -12 -12 -13 -13 -14 -14 -14 -14
Height
5864 5864 5864 5864 5864 5864 5862 5862 5860 5859 5858 5858 5858 5858 5858 5859 5859 5859 5860 5860 5861 5862 5862 5863 5862 5863 5862 5862 5861 5860 5860 5859 5858 5856 5856 5855 5853 5852 5851 5848 5847 5845 5843
5860 5861 5862 5861 5862 5861 5859 5858 5857 5857 5857 5856 5856 5856 5856 5856 5857 5857 5857 5857 5857 5858 5858 5859 5859 5860 5860 5859 5859 5858 5857 5856 5855 5853 5852 5851 5849 5849 5848 5846 5845 5843 5842
5858 5859 5860 5860 5859 5859 5857 5856 5855 5854 5855 5855 5854 5854 5854 5854 5853 5853 5854 5854 5854 5854 5855 5855 5856 5856 5855 5855 5855 5853 5853 5851 5850 5849 5848 5846 5845 5844 5843 5842 5841 5841 5839
5855 5857 5857 5857 5857 5856 5855 5854 5854 5852 5852 5852 5852 5852 5851 5851 5850 5851 5851 5851 5851 5851 5852 5852 5851 5851 5851 5850 5849 5848 5848 5847 5846 5845 5844 5842 5842 5839 5839 5838 5837 5837 5836
5852 5854 5855 5855 5854 5853 5853 5852 5852 5851 5851 5850 5849 5849 5849 5848 5848 5848 5848 5848 5847 5847 5848 5848 5847 5846 5845 5844 5843 5842 5842 5841 5839 5839 5838 5838 5837 5835 5834 5835 5834 5833 5832
5850 5850 5852 5852 5851 5851 5850 5850 5850 5849 5848 5848 5847 5846 5846 5845 5845 5845 5844 5843 5843 5843 5842 5841 5841 5840 5839 5839 5838 5836 5836 5835 5834 5834 5833 5833 5831 5831 5829 5829 5828 5827 5827
5846 5848 5849 5848 5848 5848 5848 5849 5848 5847 5846 5845 5843 5843 5843 5842 5842 5842 5840 5839 5839 5838 5837 5836 5835 5834 5834 5833 5832 5831 5831 5830 5829 5829 5829 5828 5827 5825 5825 5824 5822 5821 5820
5842 5843 5844 5845 5845 5844 5846 5847 5846 5845 5844 5842 5841 5840 5839 5838 5838 5837 5836 5835 5834 5834 5833 5832 5831 5830 5829 5827 5827 5826 5826 5825 5824 5824 5822 5822 5821 5819 5817 5817 5816 5814 5813
5839 5838 5840 5841 5841 5841 5842 5844 5843 5842 5841 5839 5838 5837 5836 5834 5834 5833 5832 5831 5830 5829 5828 5827 5826 5825 5824 5823 5822 5821 5820 5819 5817 5816 5815 5813 5813 5811 5809 5808 5807 5805 5804
5835 5835 5835 5837 5837 5838 5839 5840 5839 5839 5838 5836 5836 5835 5833 5832 5831 5829 5828 5827 5826 5824 5823 5822 5821 5820 5818 5817 5816 5815 5813 5811 5810 5808 5806 5804 5803 5802 5800 5798 5797 5796 5793
5830 5831 5831 5832 5833 5835 5835 5836 5836 5836 5835 5834 5833 5832 5830 5829 5827 5826 5824 5822 5821 5819 5818 5816 5815 5814 5812 5810 5809 5808 5806 5804 5802 5800 5798 5795 5794 5791 5790 5788 5786 5785 5783
5826 5826 5828 5828 5828 5830 5831 5831 5832 5832 5831 5830 5829 5828 5827 5826 5824 5822 5820 5818 5817 5815 5813 5811 5809 5807 5806 5804 5802 5800 5798 5796 5794 5791 5789 5787 5784 5782 5780 5779 5778 5777 5775
5821 5821 5822 5824 5825 5826 5826 5827 5827 5827 5827 5826 5825 5823 5822 5821 5820 5818 5816 5815 5812 5809 5808 5805 5803 5801 5799 5797 5795 5793 5790 5787 5785 5783 5781 5778 5776 5774 5773 5772 5770 5768 5767
5816 5817 5818 5819 5820 5821 5823 5823 5823 5822 5822 5821 5820 5820 5818 5815 5814 5812 5811 5808 5806 5804 5801 5798 5796 5793 5791 5789 5786 5784 5782 5779 5777 5775 5773 5771 5769 5766 5764 5763 5759 5758 5755
5812 5814 5813 5814 5815 5817 5818 5819 5818 5818 5817 5816 5815 5814 5812 5810 5808 5806 5804 5802 5799 5797 5795 5791 5788 5786 5783 5781 5778 5776 5774 5772 5770 5767 5766 5764 5761 5759 5756 5752 5749 5747 5744
5807 5809 5809 5808 5810 5813 5814 5813 5813 5812 5811 5811 5810 5808 5806 5804 5802 5800 5797 5796 5793 5791 5787 5784 5781 5778 5775 5774 5771 5769 5767 5764 5761 5759 5757 5755 5753 5749 5745 5743 5739 5737 5734
5799 5802 5804 5805 5807 5807 5808 5808 5808 5807 5807 5806 5804 5803 5800 5797 5795 5794 5791 5789 5786 5784 5780 5777 5775 5772 5769 5767 5765 5762 5759 5756 5753 5751 5748 5745 5742 5739 5736 5733 5730 5726 5721
5794 5796 5798 5800 5802 5803 5803 5803 5803 5802 5801 5800 5798 5795 5793 5791 5789 5787 5785 5783 5780 5777 5773 5770 5768 5765 5762 5760 5757 5754 5751 5747 5744 5742 5738 5734 5731 5728 5724 5720 5717 5715 5711
5788 5790 5792 5795 5797 5798 5798 5798 5797 5796 5795 5793 5791 5788 5787 5785 5784 5781 5778 5776 5773 5769 5765 5762 5759 5757 5754 5752 5749 5746 5742 5738 5735 5732 5728 5724 5720 5716 5711 5708 5704 5699 5695
5783 5785 5787 5789 5791 5793 5793 5793 5792 5791 5789 5787 5784 5783 5781 5780 5778 5775 5771 5767 5764 5760 5756 5754 5751 5747 5744 5742 5739 5736 5732 5728 5725 5721 5717 5712 5708 5703 5698 5692 5687 5683 5678
5778 5780 5782 5783 5786 5787 5787 5787 5786 5784 5782 5780 5779 5777 5776 5773 5770 5767 5763 5759 5755 5750 5747 5744 5741 5738 5733 5731 5729 5726 5722 5716 5713 5708 5703 5698 5691 5686 5680 5674 5669 5663 5658
5773 5775 5777 5778 5780 5781 5781 5780 5779 5777 5775 5774 5773 5771 5769 5766 5762 5758 5754 5750 5746 5741 5737 5734 5731 5728 5723 5719 5716 5713 5712 5708 5702 5696 5689 5683 5677 5671 5665 5659 5652 5645 5638
5768 5770 5771 5772 5774 5775 5775 5773 5772 5770 5768 5767 5765 5763 5761 5757 5753 5749 5744 5740 5736 5732 5728 5724 5720 5717 5713 5706 5700 5696 5692 5689 5687 5684 5677 5668 5661 5655 5648 5641 5634 5626 5619
5762 5763 5764 5766 5768 5769 5768 5767 5765 5763 5762 5760 5758 5755 5751 5747 5743 5739 5735 5731 5726 5723 5718 5714 5710 5705 5700 5695 5690 5681 5673 5664 5658 5658 5656 5649 5643 5636 5628 5621 5615 5606 5596
5755 5756 5757 5759 5761 5762 5761 5760 5759 5757 5755 5753 5750 5746 5742 5737 5733 5729 5726 5722 5718 5713 5709 5704 5699 5693 5688 5682 5675 5669 5662 5653 5644 5635 5631 5623 5617 5611 5606 5598 5589 5579 5568
5748 5749 5750 5752 5753 5754 5754 5753 5751 5749 5747 5743 5740 5737 5734 5729 5725 5721 5717 5713 5709 5704 5699 5694 5688 5682 5675 5667 5659 5650 5642 5633 5626 5617 5611 5607 5599 5590 5581 5571 5560 5550 5537
Wind_Speed
19 19 19 20 21 21 20 18 14 13 12 13 14 15 16 15 14 14 13 12 14 16 17 17 17 16 14 15 14 13 15 15 14 15 16 14 12 13 13 15 14 12 9
21 21 19 19 19 20 19 15 14 12 11 12 13 14 15 14 14 13 12 12 12 13 14 15 16 17 15 16 18 19 18 18 17 17 15 14 13 13 12 10 11 11 11
21 19 17 17 18 18 16 13 13 12 10 12 13 13 13 15 16 14 12 12 12 12 13 15 16 17 19 19 21 21 19 20 21 20 17 15 16 13 14 13 12 13 11
23 20 17 16 17 15 13 13 13 10 10 11 11 12 13 14 15 14 13 12 13 13 15 17 18 19 21 22 21 21 21 23 24 22 19 19 19 17 16 17 17 16 15
22 19 16 15 16 14 13 12 12 11 11 10 10 11 11 10 13 15 15 15 15 16 17 19 20 20 21 21 22 23 23 25 26 25 21 21 22 20 20 21 21 22 21
20 18 16 15 15 13 12 12 11 10 10 11 11 11 13 11 11 13 17 19 19 19 20 22 23 24 23 23 24 24 25 26 25 24 23 23 24 21 22 25 26 28 27
19 14 14 15 15 12 11 12 12 12 12 12 11 12 13 14 14 15 16 18 20 21 21 22 23 23 23 23 24 25 25 24 22 23 25 25 27 27 27 30 34 33 33
18 15 17 16 16 12 11 10 12 13 11 11 11 12 13 15 17 18 20 21 21 22 23 24 23 23 24 25 25 25 25 25 25 26 26 28 30 33 34 35 36 38 37
17 17 16 18 17 14 12 11 12 11 8 8 10 11 12 14 17 19 21 23 24 26 26 27 27 27 27 27 27 28 29 30 30 31 32 33 35 36 37 37 38 40 41
17 22 17 20 19 17 15 13 12 11 9 10 11 13 14 14 15 16 18 21 23 25 27 27 27 27 28 29 29 30 30 32 33 34 35 38 40 40 41 42 43 45 46
20 22 20 20 21 19 18 16 15 14 12 12 14 16 16 17 18 17 18 18 19 21 23 25 26 27 29 29 31 32 33 34 35 37 39 42 44 44 43 43 41 39 36
22 23 23 22 24 21 19 17 16 16 16 17 18 19 19 20 20 20 20 21 22 23 24 25 26 28 30 31 33 34 36 37 39 39 41 42 40 37 34 33 33 33 32
24 24 25 25 27 24 22 20 17 18 19 20 22 26 27 26 25 24 24 25 26 27 27 28 29 30 32 33 35 36 37 37 38 36 35 34 35 33 32 33 33 34 34
26 26 27 25 27 26 23 23 21 20 22 24 24 27 30 31 30 29 27 27 29 31 32 33 34 34 34 35 35 36 36 36 35 33 33 34 35 36 36 36 37 38 38
25 26 26 25 26 26 26 26 24 24 24 27 25 30 31 32 33 33 33 32 32 33 34 36 35 35 35 36 36 35 35 34 35 34 36 36 37 38 38 39 40 41 40
24 25 24 25 24 25 27 26 24 25 26 28 29 31 32 34 35 35 34 33 35 36 37 37 35 32 30 30 31 31 31 32 35 36 37 37 37 38 39 40 41 42 43
26 24 25 24 23 24 26 26 25 27 28 31 30 34 36 33 29 33 32 33 35 37 37 35 32 31 30 30 30 31 32 33 36 38 38 39 40 41 41 43 43 46 48
26 24 24 22 23 24 24 24 25 27 30 30 33 37 32 29 29 29 31 32 35 37 36 36 35 34 34 34 33 33 35 35 37 37 39 41 43 44 45 47 49 50 51
25 24 22 20 21 21 22 23 25 28 30 33 36 32 30 30 30 32 34 35 37 38 37 36 36 36 36 35 36 36 36 37 39 40 41 43 46 47 50 53 55 57 58
26 24 22 20 20 21 23 25 26 29 31 34 32 31 33 33 36 36 37 40 42 41 37 35 35 37 38 38 37 37 39 41 42 44 46 50 52 56 58 61 62 63 65
27 24 23 23 21 22 24 27 30 31 33 31 31 32 34 37 37 38 41 44 43 40 38 38 38 38 40 39 40 41 44 47 48 51 55 58 60 63 65 66 67 68 69
27 25 24 25 24 24 27 29 31 33 32 31 30 35 38 41 41 42 44 42 40 40 40 40 40 40 43 44 46 48 48 50 54 58 61 63 65 66 67 69 70 73 75
29 26 26 25 26 28 30 31 32 32 29 29 33 37 40 42 43 44 44 43 40 39 39 40 42 44 47 50 54 57 60 62 62 61 64 66 68 69 71 73 75 77 78
29 28 27 27 28 30 30 31 31 31 31 33 37 41 43 44 45 44 41 40 40 40 41 44 47 50 52 54 57 62 67 72 74 73 70 71 72 73 75 75 77 79 82
28 28 28 28 30 30 30 32 32 33 37 40 41 42 41 43 43 40 39 39 41 43 45 48 50 53 56 59 63 65 67 69 73 76 77 78 77 77 77 78 80 83 86
27 27 27 28 30 30 32 34 35 37 39 39 39 40 40 39 38 39 40 41 44 46 47 50 53 56 59 63 66 69 71 72 73 75 77 78 80 80 82 84 88 91 94
Wind_Direction
278 279 283 287 293 301 311 316 319 313 308 301 290 288 273 271 270 269 270 267 260 256 261 260 263 267 262 264 262 267 270 274 279 287 290 292 299 311 321 331 318 317 308
282 285 288 291 298 306 311 320 325 323 318 311 307 295 278 269 267 264 265 266 263 259 266 270 268 266 265 265 265 269 273 274 278 284 286 286 288 293 298 313 334 328 322
279 281 280 287 297 300 303 310 320 312 308 306 304 305 288 270 261 252 255 262 262 264 270 274 275 269 268 267 269 270 269 275 277 276 277 272 270 276 288 294 303 310 320
279 278 278 284 290 289 302 309 314 317 311 314 302 302 302 277 261 250 250 255 260 266 271 277 277 276 274 272 270 270 271 274 277 269 269 268 268 274 278 286 288 288 293
274 272 268 276 283 281 295 302 308 307 302 308 297 294 306 304 269 255 253 257 263 269 274 277 278 279 279 279 277 270 269 268 270 263 261 264 265 269 278 281 282 280 280
271 271 265 269 268 269 287 292 299 300 304 297 296 290 285 297 294 269 259 261 266 271 275 274 273 274 275 275 274 271 269 267 267 261 258 260 265 267 273 278 277 280 279
270 253 244 254 254 262 275 291 293 296 301 298 289 283 280 278 281 283 276 270 269 270 272 272 272 272 271 271 271 269 269 270 272 267 262 263 266 271 276 279 280 278 279
262 247 245 245 247 255 264 279 289 291 297 295 293 284 280 277 272 271 273 275 273 274 275 276 278 279 276 271 270 271 271 272 273 271 271 270 272 274 275 276 277 280 280
246 238 240 236 239 248 256 261 276 284 298 307 308 302 292 286 282 281 279 277 278 278 278 279 280 280 280 281 279 278 279 278 278 277 276 276 275 273 274 274 273 273 275
244 230 236 234 236 244 247 258 269 272 287 310 321 322 322 321 311 299 290 286 282 280 278 277 278 280 281 281 280 278 278 279 278 279 280 280 279 280 280 280 280 279 276
257 226 239 237 236 241 244 252 257 260 282 300 306 311 320 321 321 314 306 302 297 293 288 285 283 281 279 278 278 279 279 280 283 283 283 284 283 284 282 282 282 279 279
267 245 230 237 243 242 242 250 256 263 279 287 299 303 305 308 307 307 302 300 298 297 294 293 289 287 285 283 281 282 283 283 283 284 286 285 285 284 284 282 281 281 281
268 252 241 234 234 239 245 249 258 266 276 282 287 294 300 303 303 302 299 298 296 294 292 293 291 289 287 285 284 284 285 287 288 287 287 287 286 284 285 287 287 287 286
262 260 252 249 240 240 240 242 257 267 274 280 281 289 290 294 297 297 296 292 291 294 295 295 293 289 288 288 287 286 287 287 289 287 286 285 285 286 288 287 288 287 285
259 261 260 256 247 242 244 246 255 265 277 278 285 288 289 290 291 294 292 291 293 292 294 294 291 288 286 285 286 287 287 288 286 286 283 284 284 286 286 284 281 280 281
262 257 255 257 253 247 244 254 262 270 278 288 294 298 298 296 287 288 292 292 295 297 299 298 293 288 284 286 288 289 288 287 286 284 283 283 282 280 279 280 281 281 278
265 262 255 252 251 253 251 256 267 275 284 291 291 298 301 295 295 291 292 298 300 301 302 298 294 293 292 291 288 285 286 285 284 284 285 283 282 282 282 280 280 279 279
265 258 248 247 250 259 264 268 274 281 285 289 293 299 300 296 297 294 297 300 302 304 300 298 296 294 291 290 289 288 287 286 284 283 283 285 285 284 282 281 280 279 280
266 256 244 243 256 260 264 270 279 284 289 295 299 299 296 298 300 300 300 300 302 304 301 297 295 293 291 290 289 288 288 289 289 289 289 287 286 286 285 284 284 284 282
264 255 242 253 262 262 265 274 283 292 299 301 300 297 302 302 302 300 301 303 304 302 297 293 289 288 287 287 289 290 290 291 291 291 291 290 289 288 288 286 284 282 281
260 255 248 255 261 266 271 281 289 295 298 298 291 293 297 296 297 298 301 302 300 298 295 292 292 294 293 293 292 293 294 293 293 292 292 292 292 290 290 290 288 287 287
259 259 251 252 262 270 279 286 293 296 294 292 288 288 291 295 298 300 301 300 299 297 295 296 297 297 297 295 293 292 291 292 293 294 294 293 291 290 289 288 288 288 287
255 257 251 252 260 268 279 287 292 297 292 292 290 292 295 297 300 301 302 302 300 299 298 298 298 297 297 298 298 298 296 295 293 292 292 291 290 290 289 288 287 287 287
252 256 253 253 262 271 279 288 297 301 298 296 296 297 298 299 301 302 303 302 301 301 300 299 299 301 302 302 302 301 300 299 298 296 295 294 293 292 290 290 292 292 290
252 257 257 259 263 270 279 286 294 299 299 297 297 297 300 301 303 305 303 301 301 301 301 302 303 303 303 302 301 301 301 301 299 299 298 297 295 295 297 297 297 297 296
253 257 257 257 263 271 279 288 292 294 296 298 298 299 301 302 303 301 302 303 302 302 303 303 303 304 304 305 304 303 302 301 299 298 296 295 295 298 301 302 302 301 299